Simultaneous Nadir Overpasses (SNOs) Predictions

Prediction of SNOs between GOES-16 and TERRA Satellite Orbit:

Table of predicted SNOs for the next 14.0 days since TLE Epoch: 3/16/2017
Index Date Time (GOES-16) GOES-16 Lat,Lon TERRA Lat,Lon Distance(km) Time Diff (sec)
1 03/17/2017 04:31:31 -0.02, -89.47 -0.09, -89.97 56.11 80
2 03/19/2017 04:16:40 -0.01, -89.49 0.54, -87.01 282.77 80
3 03/19/2017 16:37:55 0.01, -89.53 0.59, -92.16 299.06 80
4 03/21/2017 16:28:24 0.01, -89.56 -0.05, -89.20 40.10 80
5 03/23/2017 16:16:13 0.00, -89.59 -0.69, -86.25 379.41 80
6 03/24/2017 04:37:37 -0.00, -89.56 -0.43, -91.44 213.60 80
7 03/26/2017 04:22:46 -0.00, -89.59 0.22, -88.48 126.16 80
8 03/26/2017 16:44:02 0.00, -89.63 0.85, -93.64 455.98 80
9 03/28/2017 04:10:35 -0.00, -89.63 0.87, -85.53 466.18 80
10 03/28/2017 16:31:51 0.00, -89.67 0.20, -90.69 115.84 80
11 03/30/2017 16:22:19 0.00, -89.70 -0.39, -87.72 224.42 80




NCC Satellite Simultaneous Nadir Overpasses (SNOs) Prediction Service
